Regional Weather Roundup
Issued by NWS

Home | Current Version | Previous Version | Text Only | Print | Product List | Glossary On
Versions: 1 2 3 4 5 6 7 8 9 10 11 12 13 14 15 16 17 18 19 20 21 22 23 24 25 26 27 28 29 30 31 32 33 34 35 36 37 38 39 40 41 42 43 44 45 46 47 48 49 50
000
ASUS43 KDTX 271001
RWRMI
MICHIGAN HOURLY REGIONAL WEATHER ROUNDUP
NATIONAL WEATHER SERVICE DETROIT/PONTIAC MI
600 AM EDT WED MAY 27 2015

NOTE: "FAIR" INDICATES FEW OR NO CLOUDS BELOW 12,000 FEET WITH NO
SIGNIFICANT WEATHER AND/OR OBSTRUCTION TO VISIBILITY.

MIZ047>049-052>055-059>063-066>070-074>076-081>083-271100-
SOUTHEAST LOWER MICHIGAN

CITY           SKY/WX    TMP DP  RH WIND       PRES   REMARKS
ADRIAN         CLEAR     64  60  87 SW12      29.96R
ALMA           CLOUDY    66  62  87 S10       29.85R
ANN ARBOR      PTCLDY    63  62  97 S8        29.94R
BAD AXE        PTCLDY    65  60  84 SW9       29.87R
CARO           PTCLDY    64  61  87 S8        29.86S
DETROIT CITY   CLEAR     68  63  84 SW13      29.94
DETROIT        CLOUDY    67  63  87 S10G28    29.95R
FLINT          PTCLDY    67  59  75 S9        29.90R
GROSSE ILE     CLEAR     68  64  88 S10       29.94R
HILLSDALE      PTCLDY    65  62  90 SW10G17   29.95R
HOWELL         PTCLDY    64  60  86 S6        29.92R

CITY           SKY/WX    TMP DP  RH WIND       PRES   REMARKS
JACKSON        PTCLDY    66  59  78 SW13      29.93R
LAMBERTVILLE   CLEAR     68  63  83 SW9       29.97R
LANSING        CLOUDY    65  59  81 S13       29.89R
LAPEER         FAIR      64  59  85 S7        29.91R
MASON          PTCLDY    63  58  84 S6        29.91R
MT. CLEMENS    PTCLDY    68  63  85 S10       29.92R
PONTIAC        MOCLDY    64  61  90 S8        29.92R
PORT HOPE        N/A    N/A N/A N/A VRB5      29.84R
PORT HURON     PTCLDY    64  63  94 S7        29.93R
TRI CITIES     PTCLDY    68  60  75 SW12      29.85R
MIDLAND        FAIR      65  60  82 S8        29.83R
TROY           CLEAR     67  64  91 S6        29.95R
SAGINAW HB     CLEAR     64  63  94 S14       29.85R
$$
MIZ043>046-050>051-056>058-064>065-071>073-077>080-271100-
SOUTHWEST LOWER MICHIGAN

CITY           SKY/WX    TMP DP  RH WIND       PRES   REMARKS
BATTLE CREEK   CLOUDY    67  59  75 SW16      29.91R
BENTON HARBOR  PTCLDY    66  60  81 SW13      29.90R
BIG RAPIDS     CLOUDY    64  60  87 SW10G17   29.82R
COLDWATER      CLOUDY    64  58  81 SW9G16    29.95R
FREMONT        CLOUDY    59  58  96 SW12      29.83R
HOLLAND        MOCLDY    65  59  81 SW16G26   29.87R
GRAND RAPIDS   MOCLDY    67  61  81 SW14      29.87R
IONIA          CLOUDY    67  60  77 SW16      29.85S
KALAMAZOO      CLOUDY    67  59  75 SW13      29.92R
LUDINGTON      PTCLDY    59  56  91 SW17G26   29.79R
MARSHALL       CLOUDY    66  59  80 SW9       29.92R
MOUNT PLEASANT PTCLDY    65  61  85 S8        29.82R
MUSKEGON       CLOUDY    59  56  89 SW14      29.85R
SOUTH HAVEN    MOCLDY    68  59  72 SW16G24   29.89R
$$
MIZ016>042-271100-
NORTHERN LOWER MICHIGAN

CITY           SKY/WX    TMP DP  RH WIND       PRES   REMARKS
ALPENA         CLEAR     64  59  83 S8        29.77R
BEAVER ISLAND  CLOUDY    58  55  88 S13G28    29.66S FOG
BELLAIRE       CLEAR     64  57  79 S7        29.70F
CADILLAC       CLOUDY    63  59  88 SW17G23   29.78R
CHARLEVOIX     CLOUDY    63  58  84 S9        29.71F
FRANKFORT      CLOUDY    59  52  75 S17G31    29.74R
GAYLORD        PTCLDY    61  59  93 S16       29.74S
HARBOR SPRINGS PTCLDY    60  56  87 SW8G16    29.69S
HOUGHTON LAKE  CLOUDY    63  60  90 S10       29.80R
MANISTEE       CLEAR     61  54  77 SW9G20    29.77R
OSCODA         PTCLDY    64  62  93 S9        29.80S
PELLSTON       CLOUDY    63  58  83 S9        29.69F
ROGERS CITY    CLEAR     63  59  87 S9        29.74S
TRAVERSE CITY  CLEAR     64  57  78 SW8       29.71S
$$
MIZ007>008-015-271100-
EASTERN UPPER MICHIGAN

CITY           SKY/WX    TMP DP  RH WIND       PRES   REMARKS
KINROSS        CLOUDY    61  59  94 S7        29.69R
MACKINAC ISLAN CLOUDY    62  58  89 S13G20    29.68S
NEWBERRY       CLOUDY    53  53  98 S12G20    29.64S FOG
S. S. MARIE    CLOUDY    61  57  87 S12G18    29.68R
$$
MIZ004>006-011>014-085-271100-
CENTRAL UPPER MICHIGAN

CITY           SKY/WX    TMP DP  RH WIND       PRES   REMARKS
MANISTIQUE     DRIZZLE   46  45  97 SW8       29.63S
ESCANABA       CLOUDY    52  48  87 NW5       29.65R
MENOMINEE      CLOUDY    57  55  94 W6        29.66R
SAWYER-GWINN   RAIN      48  47  96 NE7       29.66R
$$
MIZ001>003-009>011-084-271100-
WESTERN UPPER MICHIGAN

CITY           SKY/WX    TMP DP  RH WIND       PRES   REMARKS
IRON MOUNTAIN  LGT RAIN  55  53  93 NW13      29.68R
HOUGHTON       FOG       45  43  93 NW16      29.71S VSB 1/4
COPPER HARBOR    N/A     43  41  93 NE3       29.70S
IRONWOOD       CLOUDY    50  48  93 SW7       29.75S
$$

ABBREVIATIONS USED IN REMARKS
   TC - TEMPERATURE IN CELSIUS
  WCI - WIND CHILL INDEX
   HX - HEAT INDEX
  VSB - VISIBILITY




USA.gov is the U.S. government's official web portal to all federal, state and local government web resources and services.